Weather History for North Island, CA

Change the Weather History Date:

Saturday, March 2, 2013

  Actual Average Record
Temperature  
Mean Temperature 70 °F -  
Max Temperature 84 °F 61 °F 86 °F (2009)
Min Temperature 55 °F 48 °F 44 °F (2007)
Cooling Degree Days 4    
Growing Degree Days 20 (Base 50)    
Moisture  
Dew Point 35 °F    
Average Humidity 38    
Maximum Humidity 72    
Minimum Humidity 11    
Precipitation  
Precipitation 0.00 in - - ()
Sea Level Pressure  
Sea Level Pressure 30.14 in    
Wind  
Wind Speed 2 mph (WNW)    
Max Wind Speed 9 mph    
Max Gust Speed -    
Visibility 10 miles    
Events      
Averages and records for this station are not official NWS values.
T = Trace of Precipitation, MM = Missing Value Source: NWS Daily Summary

Daily Weather History Graph

Daily Weather History Graph

Search for Another Location

Airport:

Trip Planner

Search our weather history database for the weather conditions in past years. The results will help you decide how hot, cold, wet, or windy it might be!

Date:

Astronomy

Mar. 02, 2013 Rise Set
Actual Time 6:14 AM PST 5:47 PM PST
Civil Twilight 5:50 AM PST 6:11 PM PST
Nautical Twilight 5:21 AM PST 6:40 PM PST
Astronomical Twilight 4:53 AM PST 7:09 PM PST
Moon 11:10 PM PST (3/2) 9:05 AM PST (3/2)
Length of Visible Light 12h 21m
Length of Day
11h 32m
Waning Gibbous, 73% of the Moon is Illuminated
Mar 2
Waning Gibbous
Mar 4
Last Quarter
Mar 11
New
Mar 19
First Quarter
Mar 27
Full

Hourly Weather History & Observations

Time (PST) Temp. Dew Point Humidity Pressure Visibility Wind Dir Wind Speed Gust Speed Precip Events Conditions
12:52 AM 57.0 °F 35.1 °F 44% 30.19 in 10.0 mi Calm Calm - N/A   Clear
1:52 AM 55.9 °F 36.0 °F 47% 30.18 in 10.0 mi Calm Calm - N/A   Clear
2:52 AM 55.9 °F 39.0 °F 53% 30.17 in 10.0 mi Calm Calm - N/A   Clear
3:52 AM 55.0 °F 34.0 °F 45% 30.16 in 10.0 mi Calm Calm - N/A   Clear
4:52 AM 55.0 °F 37.0 °F 51% 30.16 in 10.0 mi Calm Calm - N/A   Clear
5:52 AM 55.0 °F 39.0 °F 55% 30.16 in 10.0 mi Calm Calm - N/A   Clear
6:52 AM 55.9 °F 37.9 °F 51% 30.17 in 10.0 mi North 4.6 mph - N/A   Partly Cloudy
7:52 AM 66.0 °F 34.0 °F 30% 30.18 in 10.0 mi Calm Calm - N/A   Partly Cloudy
8:52 AM 72.0 °F 28.9 °F 20% 30.18 in 10.0 mi Calm Calm - N/A   Partly Cloudy
9:52 AM 80.1 °F 26.1 °F 14% 30.17 in 10.0 mi Calm Calm - N/A   Scattered Clouds
10:52 AM 84.0 °F 25.0 °F 12% 30.17 in 10.0 mi Calm Calm - N/A   Scattered Clouds
11:52 AM 84.0 °F 23.0 °F 11% 30.15 in 10.0 mi WNW 9.2 mph - N/A   Scattered Clouds
12:52 PM 82.9 °F 23.0 °F 11% 30.13 in 10.0 mi WNW 9.2 mph - N/A   Mostly Cloudy
1:52 PM 81.0 °F 24.1 °F 12% 30.11 in 10.0 mi WNW 5.8 mph - N/A   Mostly Cloudy
2:52 PM 80.1 °F 25.0 °F 13% 30.10 in 10.0 mi WNW 6.9 mph - N/A   Mostly Cloudy
3:52 PM 75.9 °F 25.0 °F 15% 30.09 in 10.0 mi West 6.9 mph - N/A   Mostly Cloudy
4:52 PM 73.9 °F 30.0 °F 20% 30.09 in 10.0 mi WNW 6.9 mph - N/A   Mostly Cloudy
5:52 PM 70.0 °F 34.0 °F 27% 30.09 in 10.0 mi NNW 3.5 mph - N/A   Mostly Cloudy
6:52 PM 63.0 °F 42.1 °F 46% 30.10 in 10.0 mi Calm Calm - N/A   Scattered Clouds
7:52 PM 60.1 °F 48.9 °F 67% 30.11 in 10.0 mi SE 3.5 mph - N/A   Clear
8:52 PM 59.0 °F 50.0 °F 72% 30.12 in 10.0 mi Calm Calm - N/A   Clear
9:52 PM 59.0 °F 48.0 °F 67% 30.12 in 10.0 mi Calm Calm - N/A   Scattered Clouds
10:52 PM 57.0 °F 46.0 °F 67% 30.10 in 10.0 mi Calm Calm - N/A   Mostly Cloudy
11:52 PM 57.9 °F 44.1 °F 60% 30.10 in 10.0 mi Calm Calm - N/A   Mostly Cloudy